Regional Weather Roundup
Issued by NWS

Home | Current Version | Previous Version | Graphics & Text | Print | Product List | Glossary On
Versions: 1 2 3 4 5 6 7 8 9 10 11 12 13 14 15 16 17 18 19 20 21 22 23 24 25 26 27 28 29 30 31 32 33 34 35 36 37 38 39 40 41 42 43 44 45 46 47 48 49 50
000
ASUS43 KMPX 170010
RWRMN
WEATHER ROUNDUP FOR MINNESOTA
NATIONAL WEATHER SERVICE TWIN CITIES/CHANHASSEN MN
700 PM CDT WED APR 16 2014


NOTE: "FAIR" INDICATES FEW OR NO CLOUDS BELOW 12,000 FEET WITH NO
SIGNIFICANT WEATHER AND/OR OBSTRUCTIONS TO VISIBILITY. N/A MEANS
CURRENT SKY AND/OR WEATHER CONDITIONS ARE NOT AVAILABLE.

MNZ060>063-068>070-170100-
   Twin Cities Metro

CITY           SKY/WX    TMP DP  RH WIND       PRES   REMARKS
TWIN CITIES    LGT RAIN  33  33 100 N17       29.90S FOG     WCI  22
6HR MIN TEMP:  32; 6HR MAX TEMP:  37; 6HR PCP:  0.14;

ST PAUL        RAIN      35  33  92 VRB7      29.93R FOG     WCI  29
CRYSTAL        HVY SNOW  32  30  92 NE14G22   29.92R VSB 1/4 WCI  22
BLAINE         SNOW      34  34 100 NE13G18   29.93R VSB 1/2 WCI  25
EDEN PRAIRIE   LGT RAIN  34  32  93 NE14      29.88R FOG     WCI  24
6HR MIN TEMP:  34; 6HR MAX TEMP:  39; 6HR PCP:  0.13;

LAKEVILLE      RAIN      34  34 100 N9G16     29.86S WCI  26
SOUTH ST PAUL  LGT RAIN  37  36  95 N13       29.90R
LAKE ELMO      LGT SNOW  34  34 100 NE12G20   29.92R WCI  25
$$
MNZ001>005-007-008-013>017-022>024-027-028-170100-
   Northwest Minnesota

CITY           SKY/WX    TMP DP  RH WIND       PRES   REMARKS
BEMIDJI        MOSUNNY   35  13  39 NE13      30.14S WCI  26
HALLOCK        CLOUDY    37   3  23 NE9       30.26R
ROSEAU         SUNNY     36   9  32 NE14      30.25R
WARROAD        SUNNY     34  12  40 NE8       30.25S WCI  27
THIEF RVR FALL SUNNY     37   9  30 NE15      30.20R
CROOKSTON      SUNNY     37  16  41 NE15G22   30.20R
FOSSTON        SUNNY     37  10  32 NE14G24   30.16R
DETROIT LAKES  MOSUNNY   34  21  60 E14G22    30.12S WCI  24
MOORHEAD       SUNNY     37  25  60 NE14      30.15R
PARK RAPIDS    CLOUDY    30  21  69 NE13G22   30.11S WCI  20
$$
MNZ006-009>011-018-025>026-170100-
   North Central Minnesota

CITY           SKY/WX    TMP DP  RH WIND       PRES   REMARKS
BAUDETTE       SUNNY     36   5  27 NE14      30.21R
FLAG ISLAND    SUNNY     32   9  37 N13       30.25R WCI  22
INTL FALLS     PTCLDY    36   2  23 E10       30.20R
6HR MIN TEMP:  32; 6HR MAX TEMP:  37;

WASKISH        MOSUNNY   37   9  30 NE13      30.19R
BIG FORK       PTSUNNY   34  12  40 E8G16     30.18R WCI  27
LONGVILLE      MIX PCPN  28  23  80 NE7G16    30.13S WCI  21
GRAND RAPIDS   CLOUDY    27  19  74 NE7G17    30.15R WCI  19
CRANE LAKE     CLOUDY    34   5  29 NE3       30.22R
ORR            CLOUDY    32   9  37 SE6       30.17R WCI  26
COOK           MOCLDY    28  19  69 E7        30.20R WCI  21
$$
MNZ012-019>021-037-170100-
   Northeast Minnesota

CITY           SKY/WX    TMP DP  RH WIND       PRES   REMARKS
DULUTH         LGT SNOW  26  22  84 E21G31    30.12R VSB 3/4 WCI  12
6HR MIN TEMP:  26; 6HR MAX TEMP:  27; 6HR PCP:  0.23;

ELY            LGT SNOW  25  19  80 E9        30.21R WCI  15
HIBBING        LGT SNOW  27  21  78 NE15      30.17R WCI  15
EVELETH        LGT SNOW  27  21  80 NE10      30.18S WCI  17
DULUTH HARBOR  LGT SNOW  28  27  93 NE26G37   30.16S VSB 3/4 WCI  13
TWO HARBORS    LGT SNOW  25  19  80 NE16G23   30.15S VSB 3/4 WCI  12
SILVER BAY     LGT SNOW  25  23  93 NE12G20   30.18S VSB 3/4 WCI  14
GRAND MARAIS     N/A     28  23  81 NE16      30.29R WCI  16
G MARAIS ARPRT LGT SNOW  21  16  79 NE10      30.22S WCI  10
$$
MNZ029>031-032-039>041-046>048-054>057-064-170100-
   West Central Minnesota

CITY           SKY/WX    TMP DP  RH WIND       PRES   REMARKS
FERGUS FALLS   PTSUNNY   30  19  64 NE14G26   30.09R WCI  20
WHEATON        CLOUDY    34  27  75 NE16G25   30.12R WCI  23
MORRIS         CLOUDY    30  25  80 N21G26    30.04R WCI  17
ALEXANDRIA     CLOUDY    29  23  78 NE20G26   30.04R WCI  16
ELBOW LAKE     CLOUDY    31  23  72 NE16G26   30.07R WCI  19
WADENA         CLOUDY    28  21  74 NE17G23   30.09R WCI  16
GLENWOOD       CLOUDY    28  25  86 N20       30.02R WCI  15
APPLETON       CLOUDY    32  27  80 N24       30.03R WCI  19
BENSON         CLOUDY    30  25  80 NE17G25   30.02R WCI  18
ORTONVILLE     CLOUDY    30  25  80 N23       30.06R HAZE    WCI  17
MADISON        CLOUDY    34  28  80 N20       30.03R WCI  22
WILLMAR        LGT SNOW  30  27  86 NE23G30   29.97R WCI  17
$$
MNZ033>034-036-042>043-049>051-058-059-170100-
   Central Minnesota

CITY           SKY/WX    TMP DP  RH WIND       PRES   REMARKS
ST CLOUD       SNOW      29  26  89 NE15G23   29.98R VSB 1/2 WCI  18
6HR MIN TEMP:  29; 6HR MAX TEMP:  30; 6HR PCP:  0.59;

SAUK CENTRE    CLOUDY    28  25  86 N16G24    30.02R WCI  17
PAYNESVILLE    LGT SNOW  28  26  92 N13       29.99R VSB 1   WCI  18
AITKIN         LGT SNOW  30  25  80 N12G18    30.08R WCI  21
PINE RIVER     MIX PCPN  28  23  80 NE13G23   30.14S WCI  18
BRAINERD       LGT SNOW  32  23  69 NE20G25   30.08R WCI  20
STAPLES        CLOUDY    28  21  74 NE13G18   30.08R WCI  18
LONG PRAIRIE   CLOUDY    27  23  86 VRB20G26  30.03R WCI  13
LITTLE FALLS   LGT SNOW  28  25  86 N7G17     30.04R WCI  21
LITCHFIELD     LGT SNOW  30  30 100 NE18      29.94R VSB 3/4 WCI  18
BUFFALO        LGT SNOW  30  28  93 N14G23    29.95R VSB 3/4 WCI  19
MAPLE LAKE     LGT SNOW  31  30  96 NE13G18   29.95S VSB 3/4 WCI  21
$$
MNZ037-044-045-052-053-170100-
   East Central Minnesota

CITY           SKY/WX    TMP DP  RH WIND       PRES   REMARKS
PRINCETON      SNOW      30  28  93 N17       29.98R VSB 1/2 WCI  18
MORA           SNOW      28  27  93 NE9G18    30.03S VSB 1/2 WCI  20
CAMBRIDGE      SNOW      30  25  80 NE14G21   29.96S VSB 1/2 WCI  20
RUSH CITY      LGT SNOW  29  28  93 NE20G26   30.00S WCI  17
MOOSE LAKE     LGT SNOW  28  25  86 NE13G20   30.06S VSB 1   WCI  18
HINCKLEY       LGT SNOW  30  28  93 NE18      30.03F VSB 1   WCI  18
CLOQUET        LGT SNOW  27  25  93 NE18G32   30.10R WCI  13
MCGREGOR       CLOUDY    28  27  93 NE15G21   30.10R WCI  17
$$
MNZ071>073-080-081-089-090-097-098-170100-
   Southwest Minnesota

CITY           SKY/WX    TMP DP  RH WIND       PRES   REMARKS
MONTEVIDEO     CLOUDY    30  28  93 NE20G25   30.00R WCI  18
GRANITE FALLS  LGT SNOW  30  27  90 N21G26    29.98R WCI  17
CANBY          CLOUDY    31  28  90 N16G22    30.02R WCI  19
MARSHALL       CLOUDY    30  25  80 N21G26    29.95R WCI  17
REDWOOD FALLS  SNOW      30  28  92 NE10G23   29.91R VSB 1/2 WCI  21
OLIVIA         LGT SNOW  30  28  93 NE15G21   29.92R VSB 1   WCI  19
PIPESTONE      CLOUDY    28  27  93 N21G30    29.90R WCI  15
WINDOM         SNOW      34  32  93 N17       29.83R VSB 1/2 WCI  23
WORTHINGTON    CLOUDY    30  25  80 N22       29.86R VSB 1   WCI  17
JACKSON        LGT RAIN  36  34  93 N15G26    29.81R
TRACY          LGT SNOW  30  29  95 N18G24    29.92R VSB 1   WCI  18
SLAYTON        CLOUDY    28  28 100 N26       29.89R WCI  13
$$
MNZ065>067-074>077-082>085-091>093-170100-
   South Central Minnesota

CITY           SKY/WX    TMP DP  RH WIND       PRES   REMARKS
MANKATO        CLOUDY    36  34  93 NE22      29.84R
NEW ULM        LGT RAIN  34  34 100 NE15      29.85S WCI  24
ST JAMES       LGT RAIN  36  34  93 N15       29.84R
FAIRMONT       CLOUDY    37  34  87 N22       29.81R
GLENCOE        LGT SNOW  33  30  90 N10G16    29.89S WCI  24
FARIBAULT      LGT RAIN  39  34  81 N9G18     29.84R
OWATONNA       LGT RAIN  45  39  81 N13       29.80R
WASECA         LGT RAIN  41  37  87 N14       29.82R
ALBERT LEA     DRIZZLE   54  37  54 SE6       29.74F
$$
MNZ078>079-086>088-094>096-170100-
   Southeast Minnesota

CITY           SKY/WX    TMP DP  RH WIND       PRES   REMARKS
ROCHESTER      LGT RAIN  50  35  56 S22G30    29.83R
6HR MIN TEMP:  47; 6HR MAX TEMP:  52; 6HR PCP: TRACE;

RED WING       LGT RAIN  48  37  66 S12G20    29.86R
STANTON        LGT RAIN  38  35  91 N15       29.83S
DODGE CENTER   LGT RAIN  52  39  62 S17       29.80S
WINONA         CLOUDY    54  28  37 S12G21    29.87S
AUSTIN         LGT RAIN  50  37  62 SE9G20    29.78F
PRESTON        CLOUDY    52  32  46 S24G33    29.84S
$$
ABBREVIATIONS USED IN REMARKS
   TC - TEMPERATURES IN CELSIUS
  WCI - WIND CHILL INDEX
   HX - HEAT INDEX
  VSB - VISIBILITY
$$


USA.gov is the U.S. government's official web portal to all federal, state and local government web resources and services.